Time,TemperatureF,DewpointF,PressureIn,WindDirection,WindDirectionDegrees,WindSpeedMPH,WindSpeedGustMPH,Humidity,HourlyPrecipIn,Conditions,Clouds,dailyrainin,SoftwareType,DateUTC
2013-02-01 00:03:00,31.0,24.0,-100.00,SSW,200,5.0,9.0,73,0.00,,,0.12,,2013-02-01 05:03:00,
2013-02-01 00:12:00,31.0,24.0,-100.00,SSW,200,5.0,9.0,73,0.00,,,0.12,,2013-02-01 05:12:00,
2013-02-01 00:22:00,32.0,23.0,-100.00,SW,220,7.0,11.0,71,0.00,,,0.11,,2013-02-01 05:22:00,
2013-02-01 00:32:00,32.0,23.0,-100.00,SW,220,7.0,11.0,71,0.00,,,0.11,,2013-02-01 05:32:00,
2013-02-01 00:42:00,32.0,23.0,-100.00,SW,220,7.0,11.0,71,0.00,,,0.11,,2013-02-01 05:42:00,
2013-02-01 01:02:00,31.0,25.0,-100.00,SSW,212,10.0,13.0,77,0.00,,,0.10,,2013-02-01 06:02:00,
2013-02-01 01:12:00,31.0,25.0,-100.00,SSW,212,10.0,13.0,77,0.00,,,0.10,,2013-02-01 06:12:00,
2013-02-01 01:22:00,31.0,27.0,-100.00,SSW,213,12.0,17.0,86,0.00,,,0.07,,2013-02-01 06:22:00,
2013-02-01 01:32:00,31.0,27.0,-100.00,SSW,213,12.0,17.0,86,0.00,,,0.07,,2013-02-01 06:32:00,
2013-02-01 01:42:00,31.0,27.0,-100.00,SSW,213,12.0,17.0,86,0.00,,,0.07,,2013-02-01 06:42:00,
2013-02-01 03:42:00,22.0,22.0,-100.00,ESE,123,2.0,5.0,99,0.09,,,0.30,,2013-02-01 08:42:00,
2013-02-01 03:52:00,22.0,22.0,-100.00,ESE,123,2.0,5.0,99,0.09,,,0.30,,2013-02-01 08:52:00,
2013-02-01 04:02:00,22.0,21.0,-100.00,SSE,168,3.0,6.0,99,0.01,,,0.31,,2013-02-01 09:02:00,
2013-02-01 04:11:00,22.0,21.0,-100.00,SSE,168,3.0,6.0,99,0.01,,,0.31,,2013-02-01 09:11:00,
2013-02-01 04:21:00,21.0,20.0,-100.00,SW,220,2.0,5.0,98,0.20,,,0.33,,2013-02-01 09:21:00,
2013-02-01 04:32:00,19.0,19.0,-100.00,SW,233,5.0,8.0,98,0.09,,,0.35,,2013-02-01 09:32:00,
2013-02-01 04:42:00,19.0,19.0,-100.00,SW,233,5.0,8.0,98,0.09,,,0.35,,2013-02-01 09:42:00,
2013-02-01 04:52:00,18.0,18.0,-100.00,SSE,164,3.0,5.0,98,0.40,,,0.46,,2013-02-01 09:52:00,
2013-02-01 05:01:00,18.0,18.0,-100.00,SSE,164,3.0,5.0,98,0.40,,,0.46,,2013-02-01 10:01:00,
2013-02-01 05:11:00,18.0,18.0,-100.00,SSE,164,3.0,5.0,98,0.40,,,0.46,,2013-02-01 10:11:00,
2013-02-01 05:21:00,18.0,17.0,-100.00,SSE,155,2.0,4.0,98,0.14,,,0.49,,2013-02-01 10:21:00,
2013-02-01 05:32:00,18.0,17.0,-100.00,SSE,155,2.0,4.0,98,0.14,,,0.49,,2013-02-01 10:32:00,
2013-02-01 05:43:00,17.0,16.0,-100.00,South,181,1.0,3.0,97,0.03,,,0.52,,2013-02-01 10:43:00,
2013-02-01 05:53:00,17.0,16.0,-100.00,South,181,1.0,3.0,97,0.03,,,0.52,,2013-02-01 10:53:00,
2013-02-01 06:02:00,16.0,15.0,-100.00,ESE,109,2.0,4.0,96,0.00,,,0.52,,2013-02-01 11:02:00,
2013-02-01 06:11:00,16.0,15.0,-100.00,ESE,109,2.0,4.0,96,0.00,,,0.52,,2013-02-01 11:11:00,
2013-02-01 06:22:00,14.0,13.0,-100.00,WSW,244,5.0,6.0,95,0.00,,,0.52,,2013-02-01 11:22:00,
2013-02-01 06:32:00,12.0,11.0,-100.00,SW,232,3.0,5.0,94,0.00,,,0.51,,2013-02-01 11:32:00,
2013-02-01 06:42:00,12.0,11.0,-100.00,SW,232,3.0,5.0,94,0.00,,,0.51,,2013-02-01 11:42:00,
2013-02-01 06:53:00,12.0,11.0,-100.00,SSW,203,3.0,4.0,94,0.00,,,0.51,,2013-02-01 11:53:00,
2013-02-01 07:03:00,12.0,11.0,-100.00,SSW,203,3.0,4.0,94,0.00,,,0.51,,2013-02-01 12:03:00,
2013-02-01 07:12:00,12.0,11.0,-100.00,SSW,203,3.0,4.0,94,0.00,,,0.51,,2013-02-01 12:12:00,
2013-02-01 07:23:00,12.0,10.0,-100.00,SSE,161,3.0,5.0,94,0.01,,,0.50,,2013-02-01 12:23:00,
2013-02-01 07:32:00,12.0,10.0,-100.00,SSE,161,3.0,5.0,94,0.01,,,0.50,,2013-02-01 12:32:00,
2013-02-01 07:42:00,11.0,10.0,-100.00,SSW,206,2.0,4.0,95,0.03,,,0.50,,2013-02-01 12:42:00,
2013-02-01 07:52:00,11.0,10.0,-100.00,SSW,206,2.0,4.0,95,0.03,,,0.50,,2013-02-01 12:52:00,
2013-02-01 08:02:00,11.0,9.0,-100.00,SW,223,3.0,3.0,94,0.00,,,0.50,,2013-02-01 13:02:00,
2013-02-01 08:12:00,11.0,9.0,-100.00,SW,223,3.0,3.0,94,0.00,,,0.50,,2013-02-01 13:12:00,
2013-02-01 08:22:00,9.0,6.0,-100.00,ENE,66,5.0,9.0,90,0.00,,,0.50,,2013-02-01 13:22:00,
2013-02-01 08:33:00,8.0,6.0,-100.00,East,90,2.0,4.0,91,0.00,,,0.50,,2013-02-01 13:33:00,
2013-02-01 08:42:00,8.0,6.0,-100.00,East,90,2.0,4.0,91,0.00,,,0.50,,2013-02-01 13:42:00,
2013-02-01 08:53:00,8.0,6.0,-100.00,East,90,2.0,4.0,91,0.00,,,0.50,,2013-02-01 13:53:00,
2013-02-01 09:03:00,8.0,6.0,-100.00,ESE,107,4.0,6.0,90,0.00,,,0.50,,2013-02-01 14:03:00,
2013-02-01 09:12:00,8.0,6.0,-100.00,ESE,107,4.0,6.0,90,0.00,,,0.50,,2013-02-01 14:12:00,
2013-02-01 09:22:00,8.0,6.0,-100.00,WSW,247,1.0,3.0,91,0.00,,,0.50,,2013-02-01 14:22:00,
2013-02-01 09:32:00,8.0,6.0,-100.00,WSW,247,1.0,3.0,91,0.00,,,0.50,,2013-02-01 14:32:00,
2013-02-01 09:42:00,9.0,6.0,-100.00,SE,137,2.0,4.0,90,0.00,,,0.50,,2013-02-01 14:42:00,
2013-02-01 09:53:00,9.0,6.0,-100.00,SE,137,2.0,4.0,90,0.00,,,0.50,,2013-02-01 14:53:00,
2013-02-01 10:03:00,10.0,7.0,-100.00,SSW,208,3.0,4.0,90,0.00,,,0.50,,2013-02-01 15:03:00,
2013-02-01 10:12:00,10.0,7.0,-100.00,SSW,208,3.0,4.0,90,0.00,,,0.50,,2013-02-01 15:12:00,
2013-02-01 10:22:00,11.0,8.0,-100.00,South,189,2.0,4.0,88,0.00,,,0.50,,2013-02-01 15:22:00,
2013-02-01 10:33:00,11.0,8.0,-100.00,South,189,2.0,4.0,88,0.00,,,0.50,,2013-02-01 15:33:00,
2013-02-01 10:42:00,12.0,9.0,-100.00,SSE,152,4.0,6.0,85,0.00,,,0.50,,2013-02-01 15:42:00,
2013-02-01 10:52:00,12.0,9.0,-100.00,SSE,152,4.0,6.0,85,0.00,,,0.50,,2013-02-01 15:52:00,
2013-02-01 11:03:00,13.0,9.0,-100.00,South,172,4.0,6.0,83,0.00,,,0.50,,2013-02-01 16:03:00,
2013-02-01 11:12:00,13.0,9.0,-100.00,South,172,4.0,6.0,83,0.00,,,0.50,,2013-02-01 16:12:00,
2013-02-01 11:22:00,14.0,9.0,-100.00,SSW,199,4.0,8.0,83,0.00,,,0.50,,2013-02-01 16:22:00,
2013-02-01 11:33:00,14.0,9.0,-100.00,SSW,199,4.0,8.0,83,0.00,,,0.50,,2013-02-01 16:33:00,
2013-02-01 11:43:00,13.0,7.0,-100.00,SSE,151,4.0,7.0,75,0.00,,,0.50,,2013-02-01 16:43:00,
2013-02-01 11:53:00,13.0,7.0,-100.00,SSE,151,4.0,7.0,75,0.00,,,0.50,,2013-02-01 16:53:00,
2013-02-01 12:03:00,14.0,8.0,-100.00,SSW,210,4.0,6.0,77,0.00,,,0.50,,2013-02-01 17:03:00,
2013-02-01 12:12:00,14.0,8.0,-100.00,SSW,210,4.0,6.0,77,0.00,,,0.50,,2013-02-01 17:12:00,
2013-02-01 12:22:00,14.0,7.0,-100.00,SSE,152,2.0,3.0,75,0.00,,,0.50,,2013-02-01 17:22:00,
2013-02-01 12:32:00,14.0,7.0,-100.00,SSE,152,2.0,3.0,75,0.00,,,0.50,,2013-02-01 17:32:00,
2013-02-01 12:42:00,18.0,9.0,-100.00,SSE,151,3.0,5.0,68,0.00,,,0.50,,2013-02-01 17:42:00,
2013-02-01 12:53:00,18.0,9.0,-100.00,SSE,151,3.0,5.0,68,0.00,,,0.50,,2013-02-01 17:53:00,
2013-02-01 13:03:00,17.0,8.0,-100.00,SSW,192,5.0,7.0,66,0.00,,,0.50,,2013-02-01 18:03:00,
2013-02-01 13:12:00,17.0,8.0,-100.00,SSW,192,5.0,7.0,66,0.00,,,0.50,,2013-02-01 18:12:00,
2013-02-01 13:23:00,20.0,7.0,-100.00,SW,222,5.0,8.0,56,0.00,,,0.50,,2013-02-01 18:23:00,
2013-02-01 13:32:00,20.0,7.0,-100.00,SW,222,5.0,8.0,56,0.00,,,0.50,,2013-02-01 18:32:00,
2013-02-01 13:42:00,20.0,5.0,-100.00,SW,229,5.0,7.0,53,0.00,,,0.50,,2013-02-01 18:42:00,
2013-02-01 13:53:00,20.0,5.0,-100.00,SW,229,5.0,7.0,53,0.00,,,0.50,,2013-02-01 18:53:00,
2013-02-01 14:03:00,20.0,9.0,-100.00,SW,215,4.0,8.0,60,0.00,,,0.50,,2013-02-01 19:03:00,
2013-02-01 14:12:00,20.0,9.0,-100.00,SW,215,4.0,8.0,60,0.00,,,0.50,,2013-02-01 19:12:00,
2013-02-01 14:22:00,22.0,6.0,-100.00,South,171,5.0,7.0,50,0.00,,,0.50,,2013-02-01 19:22:00,
2013-02-01 14:32:00,22.0,6.0,-100.00,South,171,5.0,7.0,50,0.00,,,0.50,,2013-02-01 19:32:00,
2013-02-01 14:42:00,20.0,2.0,-100.00,WSW,256,10.0,13.0,45,0.00,,,0.50,,2013-02-01 19:42:00,
2013-02-01 14:52:00,20.0,2.0,-100.00,WSW,256,10.0,13.0,45,0.00,,,0.50,,2013-02-01 19:52:00,
2013-02-01 15:02:00,24.0,10.0,-100.00,SSE,151,2.0,4.0,57,0.00,,,0.50,,2013-02-01 20:02:00,
2013-02-01 15:12:00,24.0,10.0,-100.00,SSE,151,2.0,4.0,57,0.00,,,0.50,,2013-02-01 20:12:00,
2013-02-01 15:22:00,23.0,9.0,-100.00,ESE,110,3.0,4.0,55,0.00,,,0.49,,2013-02-01 20:22:00,
2013-02-01 15:32:00,23.0,9.0,-100.00,ESE,110,3.0,4.0,55,0.00,,,0.49,,2013-02-01 20:32:00,
2013-02-01 15:42:00,23.0,5.0,-100.00,South,171,4.0,5.0,45,0.00,,,0.49,,2013-02-01 20:42:00,
2013-02-01 15:52:00,23.0,5.0,-100.00,South,171,4.0,5.0,45,0.00,,,0.49,,2013-02-01 20:52:00,
2013-02-01 16:02:00,24.0,8.0,-100.00,SSW,200,4.0,6.0,50,0.00,,,0.49,,2013-02-01 21:02:00,
2013-02-01 16:12:00,24.0,8.0,-100.00,SSW,200,4.0,6.0,50,0.00,,,0.49,,2013-02-01 21:12:00,
2013-02-01 16:22:00,23.0,8.0,-100.00,SSW,196,3.0,5.0,51,0.00,,,0.49,,2013-02-01 21:22:00,
2013-02-01 16:32:00,23.0,8.0,-100.00,SSW,196,3.0,5.0,51,0.00,,,0.49,,2013-02-01 21:32:00,
2013-02-01 16:42:00,23.0,7.0,-100.00,SW,223,3.0,5.0,51,0.00,,,0.49,,2013-02-01 21:42:00,
2013-02-01 16:53:00,23.0,7.0,-100.00,SW,223,3.0,5.0,51,0.00,,,0.49,,2013-02-01 21:53:00,
2013-02-01 17:03:00,22.0,8.0,-100.00,NE,56,6.0,11.0,54,0.00,,,0.49,,2013-02-01 22:03:00,
2013-02-01 17:11:00,22.0,8.0,-100.00,NE,56,6.0,11.0,54,0.00,,,0.49,,2013-02-01 22:11:00,
2013-02-01 17:22:00,23.0,7.0,-100.00,South,191,2.0,6.0,50,0.00,,,0.49,,2013-02-01 22:22:00,
2013-02-01 17:32:00,23.0,7.0,-100.00,South,191,2.0,6.0,50,0.00,,,0.49,,2013-02-01 22:32:00,
2013-02-01 17:42:00,21.0,4.0,-100.00,West,260,6.0,9.0,47,0.00,,,0.49,,2013-02-01 22:42:00,
2013-02-01 17:52:00,21.0,4.0,-100.00,West,260,6.0,9.0,47,0.00,,,0.49,,2013-02-01 22:52:00,
2013-02-01 18:02:00,21.0,7.0,-100.00,WSW,246,5.0,7.0,54,0.00,,,0.49,,2013-02-01 23:02:00,
2013-02-01 18:11:00,21.0,7.0,-100.00,WSW,246,5.0,7.0,54,0.00,,,0.49,,2013-02-01 23:11:00,
2013-02-01 18:22:00,21.0,7.0,-100.00,South,191,5.0,9.0,56,0.00,,,0.49,,2013-02-01 23:22:00,
2013-02-01 18:32:00,21.0,7.0,-100.00,South,191,5.0,9.0,56,0.00,,,0.49,,2013-02-01 23:32:00,
2013-02-01 18:42:00,20.0,7.0,-100.00,SSW,206,4.0,7.0,58,0.00,,,0.49,,2013-02-01 23:42:00,
2013-02-01 18:52:00,20.0,7.0,-100.00,SSW,206,4.0,7.0,58,0.00,,,0.49,,2013-02-01 23:52:00,
2013-02-01 19:02:00,19.0,8.0,-100.00,SSW,213,3.0,4.0,62,0.00,,,0.49,,2013-02-02 00:02:00,
2013-02-01 19:11:00,19.0,8.0,-100.00,SSW,213,3.0,4.0,62,0.00,,,0.49,,2013-02-02 00:11:00,
2013-02-01 19:22:00,19.0,8.0,-100.00,SSW,206,3.0,5.0,62,0.00,,,0.49,,2013-02-02 00:22:00,
2013-02-01 19:32:00,19.0,8.0,-100.00,SSW,206,3.0,5.0,62,0.00,,,0.49,,2013-02-02 00:32:00,
2013-02-01 19:42:00,18.0,8.0,-100.00,SSW,212,3.0,6.0,63,0.00,,,0.49,,2013-02-02 00:42:00,
2013-02-01 19:52:00,18.0,8.0,-100.00,SSW,212,3.0,6.0,63,0.00,,,0.49,,2013-02-02 00:52:00,
2013-02-01 20:03:00,18.0,7.0,-100.00,SW,217,4.0,6.0,63,0.00,,,0.49,,2013-02-02 01:03:00,
2013-02-01 20:11:00,18.0,7.0,-100.00,SW,217,4.0,6.0,63,0.00,,,0.49,,2013-02-02 01:11:00,
2013-02-01 20:22:00,18.0,8.0,-100.00,SW,223,2.0,4.0,65,0.00,,,0.49,,2013-02-02 01:22:00,
2013-02-01 20:32:00,18.0,8.0,-100.00,SW,223,2.0,4.0,65,0.00,,,0.49,,2013-02-02 01:32:00,
2013-02-01 20:42:00,18.0,8.0,-100.00,SW,224,2.0,4.0,67,0.00,,,0.49,,2013-02-02 01:42:00,
2013-02-01 20:52:00,18.0,8.0,-100.00,SW,224,2.0,4.0,67,0.00,,,0.49,,2013-02-02 01:52:00,
2013-02-01 21:01:00,17.0,8.0,-100.00,SW,232,4.0,6.0,65,0.00,,,0.49,,2013-02-02 02:01:00,
2013-02-01 21:11:00,17.0,8.0,-100.00,SW,232,4.0,6.0,65,0.00,,,0.49,,2013-02-02 02:11:00,
2013-02-01 21:22:00,17.0,8.0,-100.00,SW,229,3.0,4.0,67,0.00,,,0.49,,2013-02-02 02:22:00,
2013-02-01 21:32:00,17.0,8.0,-100.00,SW,229,3.0,4.0,67,0.00,,,0.49,,2013-02-02 02:32:00,
2013-02-01 21:42:00,17.0,8.0,-100.00,SSW,213,2.0,3.0,68,0.00,,,0.49,,2013-02-02 02:42:00,
2013-02-01 21:52:00,17.0,8.0,-100.00,SSW,213,2.0,3.0,68,0.00,,,0.49,,2013-02-02 02:52:00,
2013-02-01 22:02:00,17.0,8.0,-100.00,SW,220,1.0,2.0,69,0.00,,,0.49,,2013-02-02 03:02:00,
2013-02-01 22:11:00,17.0,8.0,-100.00,SW,220,1.0,2.0,69,0.00,,,0.49,,2013-02-02 03:11:00,
2013-02-01 22:22:00,17.0,8.0,-100.00,SW,223,2.0,3.0,66,0.00,,,0.49,,2013-02-02 03:22:00,
2013-02-01 22:32:00,17.0,8.0,-100.00,SW,223,2.0,3.0,66,0.00,,,0.49,,2013-02-02 03:32:00,
2013-02-01 22:42:00,17.0,7.0,-100.00,WSW,246,4.0,4.0,64,0.00,,,0.49,,2013-02-02 03:42:00,
2013-02-01 22:52:00,17.0,7.0,-100.00,WSW,246,4.0,4.0,64,0.00,,,0.49,,2013-02-02 03:52:00,
2013-02-01 23:02:00,17.0,9.0,-100.00,SW,229,1.0,2.0,70,0.00,,,0.49,,2013-02-02 04:02:00,
2013-02-01 23:11:00,17.0,9.0,-100.00,SW,229,1.0,2.0,70,0.00,,,0.49,,2013-02-02 04:11:00,
2013-02-01 23:22:00,16.0,8.0,-100.00,WSW,241,3.0,3.0,70,0.00,,,0.49,,2013-02-02 04:22:00,
2013-02-01 23:32:00,16.0,8.0,-100.00,WSW,241,3.0,3.0,70,0.00,,,0.49,,2013-02-02 04:32:00,
2013-02-01 23:42:00,17.0,8.0,-100.00,WSW,246,3.0,5.0,67,0.00,,,0.49,,2013-02-02 04:42:00,
2013-02-01 23:52:00,17.0,8.0,-100.00,WSW,246,3.0,5.0,67,0.00,,,0.49,,2013-02-02 04:52:00,